[[{"header":{"parameterUnit":"m.s-1","parameterCategory":1,"la1":30.2991,"la2":30.254,"lo1":-89.0895,"lo2":-89.0444,"dy":0.0017,"dx":0.0017,"nx":28,"ny":28,"refTime":"2026-01-30T09:00:00:Z","depth":0,"parameterNumber":2,"parameterNumberName":"U-component_of_WINDS"},"data":[0,0,0,0,0,0,0,0,0,0,0,0,0,0,0,0,0,0,0,0,0,0,0,0,0,0,0,0,0,0,0,0,0,0,0,0,0,0,0,0,0,0,0,0,0,0,0,0,0,0,0,0,0,0,0,0,0,0,1.3627,1.3627,0,1.3635,1.3635,1.3636,1.364,1.364,1.364,1.364,1.3647,1.3648,1.3648,0,0,0,0,0,0,0,0,0,0,0,0,0,1.3615,1.3615,1.3627,1.3627,1.3627,1.3635,1.3635,1.3636,1.364,1.364,1.364,1.364,1.3647,1.3648,1.3648,0,0,0,0,0,0,0,0,0,0,0,0,0,1.3622,1.3616,1.3627,1.3631,1.3631,1.3635,1.3635,1.3636,1.364,1.364,1.364,1.364,1.3647,1.3648,1.3648,1.3649,0,0,1.3649,1.3649,0,0,0,0,0,0,0,0,1.3621,1.3622,1.363,1.363,1.3631,1.3637,1.3634,1.364,1.364,1.3637,1.364,1.364,1.3644,1.3644,1.3646,1.3649,1.365,1.3649,1.3649,1.3649,1.3649,0,0,0,0,0,0,0,1.3621,1.3622,1.363,1.363,1.3631,1.3632,1.3633,1.3635,1.364,1.3637,1.3637,1.3638,1.3644,1.3646,1.3646,1.365,1.3649,1.3649,1.3649,1.3649,1.3656,1.3656,0,0,0,0,0,0,1.362,1.3621,1.363,1.3631,1.3626,1.3632,1.3633,1.3635,1.364,1.3641,1.3638,1.3638,1.3645,1.3646,1.3646,1.3649,1.3649,1.3649,1.3649,1.3656,1.3656,1.3656,0,0,0,0,0,0,1.362,1.3621,1.363,1.3626,1.3627,1.3632,1.3634,1.3635,1.3636,1.3641,1.3642,1.3639,1.3645,1.3646,1.3649,1.3649,1.3649,1.365,1.3656,1.3656,1.3656,1.3653,0,0,0,0,0,0,1.3619,1.362,1.3621,1.3626,1.3628,1.3632,1.3634,1.3635,1.3637,1.3637,1.3642,1.3642,1.3645,1.3648,1.3649,1.3649,1.365,1.3656,1.3656,1.3656,1.3653,1.3653,1.3653,0,0,0,0,0,1.3619,1.3619,1.3621,1.3622,1.3628,1.3632,1.3633,1.3636,1.3637,1.3638,1.3641,1.3642,1.3649,1.3649,1.3649,1.365,1.3656,1.3656,1.3656,1.3653,1.3653,1.3653,0,0,0,0,0,0,1.3612,1.362,1.3622,1.3623,1.3627,1.3633,1.3633,1.3636,1.3639,1.3639,1.3643,1.3644,1.3646,1.3648,1.3648,1.3652,1.3653,1.3653,1.365,1.365,1.365,1.3649,1.365,0,0,0,0,0,1.3612,1.3614,1.362,1.3621,1.3623,1.3628,1.363,1.3632,1.3636,1.3637,1.3641,1.3644,1.3647,1.3649,1.3652,1.3654,1.3655,1.3655,1.3655,1.3655,1.3654,1.3657,1.3657,1.3657,1.3657,1.3657,0,0,1.3609,1.3613,1.3614,1.362,1.3623,1.3626,1.3629,1.3631,1.3634,1.3638,1.3641,1.3644,1.3648,1.365,1.3652,1.3652,1.3655,1.3655,1.3654,1.3654,1.3657,1.3657,1.3657,1.3657,1.3657,1.3657,0,0,1.3606,1.3609,1.3611,1.3615,1.362,1.3623,1.3624,1.363,1.3632,1.3635,1.3639,1.3641,1.3646,1.3649,1.3652,1.3652,1.3654,1.3653,1.3652,1.3654,1.3654,1.3654,1.3655,1.3655,1.3653,1.3653,1.3653,0,1.3602,1.3606,1.3611,1.3614,1.3617,1.3622,1.3624,1.3627,1.3633,1.3635,1.3635,1.3643,1.3646,1.365,1.365,1.3652,1.3653,1.3652,1.3654,1.3654,1.3654,1.3655,1.3655,1.3653,1.3653,1.3653,1.3653,0,1.3602,1.3605,1.3606,1.3612,1.3615,1.3617,1.3623,1.3625,1.3628,1.3632,1.3636,1.3641,1.3645,1.3646,1.3649,1.3651,1.3652,1.3653,1.3654,1.3654,1.3654,1.3655,1.3653,1.3653,1.3653,1.3653,0,0,1.3593,1.3603,1.3604,1.3607,1.3614,1.3617,1.362,1.3625,1.3627,1.3632,1.3635,1.364,1.3642,1.3645,1.3648,1.365,1.3651,1.3651,1.3652,1.3651,1.3655,1.3653,1.3653,1.3653,1.3653,1.3653,1.3654,0,1.359,1.3596,1.3602,1.3606,1.3609,1.3615,1.3618,1.3623,1.3627,1.3631,1.3636,1.3639,1.3642,1.3643,1.3646,1.365,1.3652,1.365,1.3655,1.3656,1.3653,1.3653,1.3651,1.3652,1.3654,1.3654,1.3654,0,1.3588,1.3593,1.3597,1.3606,1.3607,1.361,1.3616,1.3619,1.3626,1.3628,1.3633,1.3637,1.3641,1.3642,1.3648,1.3648,1.365,1.3653,1.3653,1.3653,1.3654,1.3653,1.3652,1.3652,1.3655,1.3655,1.3655,0,1.3581,1.3589,1.3593,1.3596,1.3605,1.3607,1.3611,1.3618,1.3621,1.3627,1.3629,1.3635,1.3637,1.3642,1.3648,1.3648,1.3654,1.3655,1.3656,1.3656,1.3656,1.3655,1.3655,1.3659,1.3659,1.3659,1.3659,0,1.3577,1.3579,1.359,1.3592,1.3596,1.3603,1.3606,1.3611,1.3617,1.3621,1.3627,1.363,1.3638,1.3642,1.3647,1.3651,1.3653,1.3655,1.3656,1.3654,1.3654,1.3655,1.3655,1.3659,1.3659,1.3659,1.3659,0,1.3569,1.3576,1.3581,1.3591,1.3593,1.3595,1.3604,1.3607,1.3612,1.3617,1.3618,1.3626,1.3632,1.3639,1.3646,1.365,1.3654,1.3656,1.3652,1.3652,1.3653,1.3653,1.3653,1.3653,1.3657,1.3657,1.3657,0,1.3566,1.3568,1.3578,1.3582,1.3586,1.3591,1.3595,1.3602,1.3606,1.3615,1.3617,1.3623,1.3629,1.3638,1.3644,1.3651,1.3653,1.3652,1.3653,1.3652,1.3652,1.3652,1.3652,1.3652,1.3651,1.3651,1.3651,0,1.3559,1.3563,1.3568,1.3576,1.358,1.3586,1.3592,1.3595,1.3604,1.3608,1.3615,1.3619,1.3628,1.3634,1.3642,1.3646,1.365,1.3651,1.3652,1.3649,1.3647,1.3648,1.3651,1.3651,1.3651,1.3651,1.3651,1.3651,1.3553,1.3556,1.3564,1.357,1.3576,1.3582,1.3586,1.3592,1.3598,1.3606,1.3611,1.3617,1.3625,1.3636,1.3641,1.3646,1.3647,1.3648,1.3648,1.3648,1.3647,1.3647,1.3647,1.3648,1.3648,1.3648,1.3648,0,1.3547,1.3553,1.3559,1.3568,1.3573,1.3578,1.3585,1.3589,1.3595,1.3602,1.3608,1.3616,1.3623,1.3631,1.3639,1.3642,1.3644,1.3644,1.3643,1.3644,1.3646,1.3645,1.3642,1.3642,1.3642,1.3642,1.3642,1.3642,1.3544,1.3549,1.3554,1.3563,1.3569,1.3576,1.358,1.3586,1.3592,1.3601,1.3607,1.3613,1.3621,1.3629,1.3636,1.3638,1.3641,1.364,1.3642,1.3643,1.3644,1.3644,1.3643,1.364,1.364,1.364,1.364,1.364]},{"header":{"parameterUnit":"m.s-1","parameterCategory":1,"la1":30.2991,"la2":30.254,"lo1":-89.0895,"lo2":-89.0444,"dy":0.0017,"dx":0.0017,"nx":28,"ny":28,"refTime":"2026-01-30T09:00:00:Z","depth":0,"parameterNumber":3,"parameterNumberName":"V-component_of_WINDS"},"data":[0,0,0,0,0,0,0,0,0,0,0,0,0,0,0,0,0,0,0,0,0,0,0,0,0,0,0,0,0,0,0,0,0,0,0,0,0,0,0,0,0,0,0,0,0,0,0,0,0,0,0,0,0,0,0,0,0,0,-7.4172,-7.4174,0,-7.4362,-7.4364,-7.4366,-7.4304,-7.43,-7.4295,-7.4292,-7.4481,-7.449,-7.4499,0,0,0,0,0,0,0,0,0,0,0,0,0,-7.3752,-7.376,-7.4172,-7.4174,-7.4177,-7.4361,-7.4364,-7.4366,-7.4304,-7.4299,-7.4294,-7.429,-7.4478,-7.4489,-7.4499,0,0,0,0,0,0,0,0,0,0,0,0,0,-7.3937,-7.3763,-7.4171,-7.4168,-7.417,-7.4361,-7.4364,-7.4367,-7.4305,-7.4299,-7.4293,-7.4287,-7.4475,-7.4488,-7.4501,-7.4705,0,0,-7.4542,-7.4547,0,0,0,0,0,0,0,0,-7.3927,-7.3953,-7.4166,-7.4169,-7.4171,-7.4303,-7.4285,-7.448,-7.4307,-7.4254,-7.4291,-7.4284,-7.4427,-7.4443,-7.4492,-7.4714,-7.4722,-7.4543,-7.4551,-7.4556,-7.456,0,0,0,0,0,0,0,-7.3914,-7.3944,-7.4247,-7.4169,-7.4172,-7.4156,-7.4175,-7.4322,-7.4372,-7.4258,-7.4254,-7.4277,-7.4427,-7.448,-7.4496,-7.4725,-7.4542,-7.4554,-7.4562,-7.4568,-7.5124,-7.5131,0,0,0,0,0,0,-7.39,-7.3934,-7.4241,-7.4252,-7.4031,-7.4168,-7.419,-7.4267,-7.437,-7.438,-7.4282,-7.4274,-7.446,-7.4481,-7.4503,-7.4749,-7.4556,-7.4569,-7.4576,-7.5118,-7.5126,-7.5133,0,0,0,0,0,0,-7.3892,-7.3928,-7.4233,-7.4092,-7.413,-7.4182,-7.4268,-7.4273,-7.4327,-7.4389,-7.4397,-7.4328,-7.4456,-7.4484,-7.4656,-7.4755,-7.4575,-7.4587,-7.5109,-7.512,-7.5129,-7.5244,0,0,0,0,0,0,-7.388,-7.3926,-7.4005,-7.4095,-7.4138,-7.4385,-7.4274,-7.4282,-7.435,-7.4341,-7.4434,-7.4443,-7.4453,-7.4636,-7.4669,-7.477,-7.4597,-7.5101,-7.5114,-7.5126,-7.5231,-7.5257,-7.5278,0,0,0,0,0,-7.3865,-7.4029,-7.4009,-7.4047,-7.4238,-7.4391,-7.4415,-7.4425,-7.4358,-7.4438,-7.4478,-7.444,-7.4739,-7.4654,-7.4691,-7.4797,-7.5095,-7.511,-7.5125,-7.5221,-7.5252,-7.5278,0,0,0,0,0,0,-7.3948,-7.404,-7.402,-7.4218,-7.4297,-7.438,-7.448,-7.4457,-7.4556,-7.4543,-7.4549,-7.4571,-7.4747,-7.4789,-7.4694,-7.5,-7.4907,-7.493,-7.4967,-7.4997,-7.502,-7.5006,-7.4608,0,0,0,0,0,-7.3989,-7.4107,-7.4181,-7.4348,-7.4389,-7.4428,-7.4495,-7.4496,-7.4577,-7.461,-7.4663,-7.4742,-7.4854,-7.4927,-7.5034,-7.5237,-7.5256,-7.5328,-7.5351,-7.537,-7.539,-7.5501,-7.5534,-7.5184,-7.5183,-7.5183,0,0,-7.4076,-7.4141,-7.4214,-7.4366,-7.4428,-7.4548,-7.4457,-7.4588,-7.4677,-7.463,-7.4796,-7.4837,-7.4926,-7.5115,-7.52,-7.5155,-7.5491,-7.539,-7.5404,-7.5414,-7.552,-7.5553,-7.5582,-7.5194,-7.5192,-7.519,0,0,-7.4295,-7.4356,-7.4502,-7.4566,-7.4661,-7.4686,-7.4721,-7.4809,-7.4835,-7.5002,-7.4969,-7.5074,-7.5266,-7.5331,-7.5389,-7.5634,-7.5602,-7.5668,-7.579,-7.5898,-7.5925,-7.595,-7.6037,-7.6068,-7.5688,-7.5688,-7.5688,0,-7.439,-7.4572,-7.458,-7.4715,-7.4782,-7.4746,-7.4894,-7.4955,-7.5079,-7.5126,-7.5074,-7.5315,-7.5372,-7.5576,-7.5635,-7.5684,-7.5723,-7.5657,-7.5921,-7.5946,-7.5969,-7.6052,-7.6085,-7.5695,-7.5694,-7.5694,-7.5693,0,-7.4684,-7.481,-7.4916,-7.5039,-7.5119,-7.5259,-7.5287,-7.5366,-7.536,-7.5391,-7.5561,-7.5628,-7.5748,-7.5796,-7.5791,-7.5999,-7.5968,-7.5919,-7.5825,-7.6009,-7.6087,-7.6119,-7.5706,-7.5703,-7.5701,-7.5699,0,0,-7.496,-7.5087,-7.5125,-7.5181,-7.5283,-7.538,-7.5518,-7.5637,-7.5704,-7.5791,-7.5907,-7.607,-7.6026,-7.6092,-7.6093,-7.6188,-7.6377,-7.6127,-7.6129,-7.6171,-7.661,-7.6647,-7.6684,-7.6357,-7.6363,-7.6368,-7.6603,0,-7.5188,-7.5433,-7.5445,-7.5667,-7.5783,-7.5751,-7.5871,-7.5946,-7.5978,-7.6081,-7.6114,-7.6231,-7.6163,-7.6203,-7.6295,-7.6335,-7.6465,-7.6318,-7.6463,-7.6469,-7.6443,-7.6725,-7.6764,-7.6983,-7.6634,-7.6639,-7.6642,0,-7.5487,-7.5585,-7.5819,-7.5905,-7.5954,-7.6062,-7.6172,-7.6271,-7.6354,-7.6371,-7.6445,-7.6433,-7.6573,-7.6475,-7.6667,-7.6567,-7.6627,-7.6655,-7.6664,-7.6678,-7.6567,-7.6747,-7.7053,-7.7086,-7.6691,-7.6687,-7.6683,0,-7.5665,-7.5855,-7.602,-7.6069,-7.6173,-7.625,-7.6296,-7.6374,-7.6445,-7.654,-7.6585,-7.6695,-7.6755,-7.684,-7.6857,-7.6783,-7.705,-7.6952,-7.7067,-7.7067,-7.7125,-7.7121,-7.7445,-7.7163,-7.7163,-7.7162,-7.7161,0,-7.5919,-7.6064,-7.6102,-7.6204,-7.6364,-7.6376,-7.6534,-7.6575,-7.6645,-7.6753,-7.6731,-7.6832,-7.6849,-7.6954,-7.6968,-7.7125,-7.7152,-7.7169,-7.7171,-7.7171,-7.7169,-7.7211,-7.7196,-7.7171,-7.7169,-7.7167,-7.7166,0,-7.6146,-7.6178,-7.6355,-7.644,-7.6464,-7.6579,-7.6651,-7.6747,-7.6776,-7.6913,-7.6946,-7.6992,-7.7114,-7.714,-7.7284,-7.7294,-7.7481,-7.7468,-7.7453,-7.7452,-7.7565,-7.7554,-7.7928,-7.7977,-7.7663,-7.7666,-7.7668,0,-7.6306,-7.6416,-7.6513,-7.6585,-7.6636,-7.6751,-7.6823,-7.6838,-7.6914,-7.7018,-7.7102,-7.7222,-7.7319,-7.7516,-7.7561,-7.7671,-7.7661,-7.7784,-7.7677,-7.7674,-7.7663,-7.7656,-7.7667,-7.7804,-7.7808,-7.7811,-7.7813,0,-7.6586,-7.6596,-7.6702,-7.6814,-7.6901,-7.699,-7.7073,-7.7133,-7.7159,-7.7245,-7.7371,-7.7446,-7.7595,-7.7714,-7.7824,-7.787,-7.7847,-7.7846,-7.7878,-7.788,-7.7867,-7.7876,-7.7509,-7.7838,-7.7835,-7.7833,-7.7832,-7.7831,-7.6785,-7.6882,-7.6965,-7.7084,-7.7149,-7.7228,-7.7323,-7.7365,-7.747,-7.7594,-7.7595,-7.7733,-7.7813,-7.7959,-7.8012,-7.8119,-7.808,-7.8127,-7.8139,-7.815,-7.8161,-7.785,-7.8139,-7.8138,-7.8138,-7.8137,-7.8137,0,-7.7064,-7.7116,-7.7225,-7.7344,-7.7438,-7.7408,-7.7499,-7.7579,-7.77,-7.7778,-7.7875,-7.8019,-7.8135,-7.8189,-7.8303,-7.8378,-7.837,-7.8407,-7.8402,-7.8413,-7.8189,-7.815,-7.8412,-7.8412,-7.8412,-7.8412,-7.8412,-7.8412,-7.7221,-7.7383,-7.7404,-7.7598,-7.7649,-7.7785,-7.7839,-7.7912,-7.7974,-7.8137,-7.8234,-7.8269,-7.8337,-7.8456,-7.8561,-7.8573,-7.8616,-7.866,-7.8667,-7.8457,-7.8429,-7.8402,-7.8365,-7.8669,-7.8669,-7.8883,-7.8885,-7.8886]}]]